AIB9E SAZS-SAEZ

Flight info

Callsign AIB9E
Flight time N/A
Altitude 41000
Route LIMAY2C LIMAY UZ109 ISMIL UT655 ASADA ASADA7X
Aircraft A359/H-SDE2E3GHIJ3J4J5LM1ORWXY/LB1D1

Departure

Time 2026-05-09 20:26
Airport Teniente Luis Candelaria International Airport (SAZS)

Arrival

Time N/A
Airport Ezeiza International Airport - Ministro Pistarini (SAEZ)
Time Latitude Longitude Altitude Speed Heading
2026-05-09 20:17 -41.14704 -71.16170 2755 ft 0 kts 58°
2026-05-09 20:19 -41.14704 -71.16171 2755 ft 1 kts 58°
2026-05-09 20:19 -41.14712 -71.16188 2761 ft 2 kts 58°
2026-05-09 20:19 -41.14720 -71.16208 2761 ft 3 kts 71°
2026-05-09 20:19 -41.14724 -71.16232 2759 ft 3 kts 91°
2026-05-09 20:20 -41.14724 -71.16243 2760 ft 0 kts 100°
2026-05-09 20:23 -41.14729 -71.16238 2755 ft 1 kts 136°
2026-05-09 20:23 -41.14780 -71.16194 2757 ft 15 kts 141°
2026-05-09 20:23 -41.14854 -71.16045 2759 ft 25 kts 117°
2026-05-09 20:23 -41.14944 -71.15794 2756 ft 35 kts 114°
2026-05-09 20:24 -41.15058 -71.15464 2758 ft 43 kts 115°
2026-05-09 20:24 -41.15185 -71.15101 2759 ft 50 kts 115°
2026-05-09 20:24 -41.15337 -71.14662 2759 ft 51 kts 115°
2026-05-09 20:24 -41.15435 -71.14460 2756 ft 0 kts 171°
2026-05-09 20:25 -41.15458 -71.14469 2758 ft 10 kts 200°
2026-05-09 20:25 -41.15521 -71.14520 2758 ft 7 kts 238°
2026-05-09 20:25 -41.15520 -71.14584 2757 ft 8 kts 285°
2026-05-09 20:25 -41.15405 -71.14928 2758 ft 85 kts 295°
2026-05-09 20:26 -41.15041 -71.15984 2769 ft 166 kts 295°
2026-05-09 20:26 -41.14549 -71.17401 3629 ft 174 kts 295°
2026-05-09 20:26 -41.14021 -71.18967 4636 ft 199 kts 293°
2026-05-09 20:26 -41.13402 -71.20828 5391 ft 231 kts 293°
2026-05-09 20:27 -41.12741 -71.22793 6426 ft 239 kts 292°
2026-05-09 20:27 -41.12047 -71.24846 7253 ft 246 kts 291°
2026-05-09 20:27 -41.11333 -71.26957 8052 ft 254 kts 291°
2026-05-09 20:27 -41.10520 -71.29083 8871 ft 264 kts 299°
2026-05-09 20:28 -41.09183 -71.30819 9685 ft 279 kts 326°
2026-05-09 20:28 -41.07283 -71.31548 10456 ft 293 kts 359°
2026-05-09 20:28 -41.05311 -71.30903 11240 ft 296 kts 31°
2026-05-09 20:29 -41.02188 -71.27326 12936 ft 302 kts 47°
2026-05-09 20:29 -41.00870 -71.25141 13739 ft 304 kts 63°
2026-05-09 20:29 -40.99847 -71.22721 14508 ft 308 kts 66°
2026-05-09 20:29 -40.98838 -71.20197 15227 ft 312 kts 66°
2026-05-09 20:30 -40.97804 -71.17636 15956 ft 318 kts 65°
2026-05-09 20:30 -40.96745 -71.15044 16676 ft 322 kts 65°
2026-05-09 20:30 -40.95664 -71.12413 17396 ft 327 kts 65°
2026-05-09 20:30 -40.94563 -71.09746 18064 ft 335 kts 65°
2026-05-09 20:31 -40.93415 -71.06972 18433 ft 353 kts 65°
2026-05-09 20:31 -40.92205 -71.04047 18713 ft 371 kts 65°
2026-05-09 20:31 -40.90932 -71.00972 18986 ft 389 kts 64°
2026-05-09 20:31 -40.89600 -70.97766 19284 ft 406 kts 64°
2026-05-09 20:32 -40.88210 -70.94427 19561 ft 422 kts 64°
2026-05-09 20:32 -40.86789 -70.91018 19962 ft 433 kts 64°
2026-05-09 20:32 -40.85320 -70.87505 20535 ft 439 kts 65°
2026-05-09 20:32 -40.83834 -70.83953 21078 ft 446 kts 65°
2026-05-09 20:33 -40.82319 -70.80332 21675 ft 452 kts 65°
2026-05-09 20:33 -40.80792 -70.76686 22293 ft 457 kts 65°
2026-05-09 20:33 -40.79240 -70.72985 22924 ft 462 kts 65°
2026-05-09 20:33 -40.77676 -70.69258 23560 ft 467 kts 66°
2026-05-09 20:34 -40.76094 -70.65495 24102 ft 472 kts 66°
2026-05-09 20:34 -40.74340 -70.61793 24619 ft 481 kts 57°
2026-05-09 20:34 -40.72221 -70.58333 25183 ft 486 kts 52°
2026-05-09 20:34 -40.69959 -70.54990 25709 ft 491 kts 50°
2026-05-09 20:35 -40.67615 -70.51687 26225 ft 496 kts 49°
2026-05-09 20:35 -40.65234 -70.48385 26757 ft 499 kts 49°
2026-05-09 20:35 -40.62856 -70.45085 27251 ft 503 kts 49°
2026-05-09 20:35 -40.60495 -70.41666 27787 ft 505 kts 54°